Notices

What's New in latest Release from April 7th, 2021:

- Updated Glossary, including Speed of Maximum Gust, and Total Hourly Precipitation

- Updated national and regional climate services offices contacts and prices information

- Addition of station inventory lists for 1981-2010, 1971-2000, and 1961-1990 Normals.

If you haven't already, please take our survey and provide feedback about our website: https://eccc.sondage-survey.ca/f/LanguageSelection.aspx?s=442ca660-fcf1-47c0-95a9-59707d6fd709

Hourly Data Report for August 15, 2020

TORONTO CITY
ONTARIO
Current Station Operator: ECCC - MSC

43°40'00.000" N
79°24'00.000" W
112.50 m
6158355
71508
XTO

Download Data

Hourly Data (August 2020)
Hourly Data Report for August 15, 2020
TIME
LST
Temp Definition
°C
Dew Point Definition
°C
Rel Hum Definition
%
Precip. Amount Definition
mm

Wind Dir Definition
10's deg

Wind Spd Definition
km/h
Visibility Definition
km
Stn Press Definition
kPa
Hmdx Definition


Wind Chill Definition


Weather Definition


00:00 21.9 11.8 53 0.0       100.39     LegendNANA
01:00 22.2 12.6 55 0.0       100.37 25   LegendNANA
02:00 20.9 13.8 64 0.0       100.33     LegendNANA
03:00 20.7 13.5 64 0.0       100.31     LegendNANA
04:00 20.6 10.7 53 0.0       100.30     LegendNANA
05:00 20.3 10.1 52 0.0       100.30     LegendNANA
06:00 19.9 10.6 55 0.0       100.30     LegendNANA
07:00 20.0 11.2 57 0.0       100.29     LegendNANA
08:00 21.7 12.4 56 0.0       100.27     LegendNANA
09:00 22.6 14.3 60 0.0       100.24 26   LegendNANA
10:00 24.0 15.9 60 0.0       100.23 29   LegendNANA
11:00 24.7 17.0 62 0.0       100.24 30   LegendNANA
12:00 25.4 18.0 63 0.0       100.19 31   LegendNANA
13:00 26.1 16.9 57 0.0       100.18 31   LegendNANA
14:00 26.4 17.5 58 0.0       100.10 32   LegendNANA
15:00 26.2 16.9 57 0.0       100.08 31   LegendNANA
16:00 25.2 17.6 63 0.0       100.06 31   LegendNANA
17:00 25.0 17.9 65 0.0       100.05 31   LegendNANA
18:00 24.5 18.5 69 0.0       100.02 31   LegendNANA
19:00 23.9 18.9 73 0.0       100.04 31   LegendNANA
20:00 23.8 19.4 76 0.0       100.12 31   LegendNANA
21:00 24.0 19.2 75 0.0       100.11 31   LegendNANA
22:00 23.4 17.7 70 0.0       100.11 29   LegendNANA
23:00 22.5 16.9 71 0.0       100.12 28   LegendNANA

Notes on Data Quality.

Legend

  • E = Estimated
  • M = Missing
  • NA = Not Available*
  • [empty] = Indicates an unobserved value
Date modified: